owner,sensor,date,latitude,longitude,vertical_datum,mass_concentration_of_oxygen_in_sea_water,qcFlag 
SCCF RECON,ioos:station:SCCF:51:1,2009-12-01T00:00:00Z,26.5545,-82.1715,2.11,8.65,1111122 
SCCF RECON,ioos:station:SCCF:51:1,2009-12-01T01:00:00Z,26.5545,-82.1715,2.19,8.61,1111122 
SCCF RECON,ioos:station:SCCF:51:1,2009-12-01T02:00:00Z,26.5545,-82.1715,2.27,7.97,1111122 
SCCF RECON,ioos:station:SCCF:51:1,2009-12-01T03:00:00Z,26.5545,-82.1715,2.33,7.85,1111122 
SCCF RECON,ioos:station:SCCF:51:1,2009-12-01T04:00:00Z,26.5545,-82.1715,2.343,7.75,1111122 
SCCF RECON,ioos:station:SCCF:51:1,2009-12-01T05:00:00Z,26.5545,-82.1715,2.28,7.91,1111122 
SCCF RECON,ioos:station:SCCF:51:1,2009-12-01T06:00:00Z,26.5545,-82.1715,2.177,8.4,1111122 
SCCF RECON,ioos:station:SCCF:51:1,2009-12-01T07:00:00Z,26.5545,-82.1715,2.04,8.65,1111122 
SCCF RECON,ioos:station:SCCF:51:1,2009-12-01T08:00:00Z,26.5545,-82.1715,1.878,8.7,1111122 
SCCF RECON,ioos:station:SCCF:51:1,2009-12-01T09:00:00Z,26.5545,-82.1715,1.73,8.42,1111122 
SCCF RECON,ioos:station:SCCF:51:1,2009-12-01T10:00:00Z,26.5545,-82.1715,1.6,8.14,1111122 
SCCF RECON,ioos:station:SCCF:51:1,2009-12-01T11:00:00Z,26.5545,-82.1715,1.49,7.87,1111122 
SCCF RECON,ioos:station:SCCF:51:1,2009-12-01T12:00:00Z,26.5545,-82.1715,1.436,8.05,1111122 
SCCF RECON,ioos:station:SCCF:51:1,2009-12-01T13:00:00Z,26.5545,-82.1715,1.5,8.38,1111122 
SCCF RECON,ioos:station:SCCF:51:1,2009-12-01T14:00:00Z,26.5545,-82.1715,1.615,8.36,1111122 
SCCF RECON,ioos:station:SCCF:51:1,2009-12-01T15:00:00Z,26.5545,-82.1715,1.78,7.87,1111122 
SCCF RECON,ioos:station:SCCF:51:1,2009-12-01T16:00:00Z,26.5545,-82.1715,1.916,8.02,1111122 
SCCF RECON,ioos:station:SCCF:51:1,2009-12-01T17:00:00Z,26.5545,-82.1715,2.02,8.09,1111122 
SCCF RECON,ioos:station:SCCF:51:1,2009-12-01T18:00:00Z,26.5545,-82.1715,2.061,8.25,1111122 
SCCF RECON,ioos:station:SCCF:51:1,2009-12-01T19:00:00Z,26.5545,-82.1715,2.042,8.08,1111122 
SCCF RECON,ioos:station:SCCF:51:1,2009-12-01T20:00:00Z,26.5545,-82.1715,1.995,8.58,1111122 
SCCF RECON,ioos:station:SCCF:51:1,2009-12-01T21:00:00Z,26.5545,-82.1715,1.953,8.68,1111122 
SCCF RECON,ioos:station:SCCF:51:1,2009-12-01T22:00:00Z,26.5545,-82.1715,1.939,8.93,1111122 
SCCF RECON,ioos:station:SCCF:51:1,2009-12-01T23:00:00Z,26.5545,-82.1715,1.98,8.65,1111122 
SCCF RECON,ioos:station:SCCF:51:1,2009-12-02T00:00:00Z,26.5545,-82.1715,2.07,8.26,1111122 
SCCF RECON,ioos:station:SCCF:51:1,2009-12-02T01:00:00Z,26.5545,-82.1715,2.178,8.29,1111122 
SCCF RECON,ioos:station:SCCF:51:1,2009-12-02T02:00:00Z,26.5545,-82.1715,2.29,7.86,1111122 
SCCF RECON,ioos:station:SCCF:51:1,2009-12-02T03:00:00Z,26.5545,-82.1715,2.38,7.75,1111122 
SCCF RECON,ioos:station:SCCF:51:1,2009-12-02T04:00:00Z,26.5545,-82.1715,2.42,7.63,1111122 
SCCF RECON,ioos:station:SCCF:51:1,2009-12-02T05:00:00Z,26.5545,-82.1715,2.389,7.73,1111122 
SCCF RECON,ioos:station:SCCF:51:1,2009-12-02T06:00:00Z,26.5545,-82.1715,2.303,7.63,1111122 
SCCF RECON,ioos:station:SCCF:51:1,2009-12-02T07:00:00Z,26.5545,-82.1715,2.187,7.88,1111122 
SCCF RECON,ioos:station:SCCF:51:1,2009-12-02T08:00:00Z,26.5545,-82.1715,2.046,8.0,1111122 
SCCF RECON,ioos:station:SCCF:51:1,2009-12-02T09:00:00Z,26.5545,-82.1715,1.886,7.93,1111122 
SCCF RECON,ioos:station:SCCF:51:1,2009-12-02T10:00:00Z,26.5545,-82.1715,1.745,7.35,1111122 
SCCF RECON,ioos:station:SCCF:51:1,2009-12-02T11:00:00Z,26.5545,-82.1715,1.618,7.32,1111122 
SCCF RECON,ioos:station:SCCF:51:1,2009-12-02T12:00:00Z,26.5545,-82.1715,1.525,7.23,1111122 
SCCF RECON,ioos:station:SCCF:51:1,2009-12-02T13:00:00Z,26.5545,-82.1715,1.495,7.26,1111122 
SCCF RECON,ioos:station:SCCF:51:1,2009-12-02T14:00:00Z,26.5545,-82.1715,1.607,7.32,1111122 
SCCF RECON,ioos:station:SCCF:51:1,2009-12-02T15:00:00Z,26.5545,-82.1715,1.772,7.49,1111122 
SCCF RECON,ioos:station:SCCF:51:1,2009-12-02T16:00:00Z,26.5545,-82.1715,1.931,7.56,1111122 
SCCF RECON,ioos:station:SCCF:51:1,2009-12-02T17:00:00Z,26.5545,-82.1715,2.038,7.41,1111122 
SCCF RECON,ioos:station:SCCF:51:1,2009-12-02T18:00:00Z,26.5545,-82.1715,2.108,7.47,1111122 
SCCF RECON,ioos:station:SCCF:51:1,2009-12-02T19:00:00Z,26.5545,-82.1715,2.133,7.64,1111122 
SCCF RECON,ioos:station:SCCF:51:1,2009-12-02T20:00:00Z,26.5545,-82.1715,2.125,7.46,1111122 
SCCF RECON,ioos:station:SCCF:51:1,2009-12-02T21:00:00Z,26.5545,-82.1715,2.102,7.67,1111122 
SCCF RECON,ioos:station:SCCF:51:1,2009-12-02T22:00:00Z,26.5545,-82.1715,2.07,7.8,1111122 
SCCF RECON,ioos:station:SCCF:51:1,2009-12-02T23:00:00Z,26.5545,-82.1715,2.085,7.58,1111122 
SCCF RECON,ioos:station:SCCF:51:1,2009-12-03T00:00:00Z,26.5545,-82.1715,2.113,7.62,1111122 
SCCF RECON,ioos:station:SCCF:51:1,2009-12-03T01:00:00Z,26.5545,-82.1715,2.172,7.59,1111122 
SCCF RECON,ioos:station:SCCF:51:1,2009-12-03T02:00:00Z,26.5545,-82.1715,2.254,7.36,1111122 
SCCF RECON,ioos:station:SCCF:51:1,2009-12-03T03:00:00Z,26.5545,-82.1715,2.346,7.08,1111122 
SCCF RECON,ioos:station:SCCF:51:1,2009-12-03T04:00:00Z,26.5545,-82.1715,2.391,6.89,1111122 
SCCF RECON,ioos:station:SCCF:51:1,2009-12-03T05:00:00Z,26.5545,-82.1715,2.398,6.98,1111122 
SCCF RECON,ioos:station:SCCF:51:1,2009-12-03T06:00:00Z,26.5545,-82.1715,2.35,7.01,1111122 
SCCF RECON,ioos:station:SCCF:51:1,2009-12-03T07:00:00Z,26.5545,-82.1715,2.263,7.11,1111122 
SCCF RECON,ioos:station:SCCF:51:1,2009-12-03T08:00:00Z,26.5545,-82.1715,2.147,6.96,1111122 
SCCF RECON,ioos:station:SCCF:51:1,2009-12-03T09:00:00Z,26.5545,-82.1715,2.01,6.9,1111122 
SCCF RECON,ioos:station:SCCF:51:1,2009-12-03T10:00:00Z,26.5545,-82.1715,1.863,6.77,1111122 
SCCF RECON,ioos:station:SCCF:51:1,2009-12-03T11:00:00Z,26.5545,-82.1715,1.725,6.59,1111122 
SCCF RECON,ioos:station:SCCF:51:1,2009-12-03T12:00:00Z,26.5545,-82.1715,1.592,6.59,1111122 
SCCF RECON,ioos:station:SCCF:51:1,2009-12-03T13:00:00Z,26.5545,-82.1715,1.49,6.4,1111122 
SCCF RECON,ioos:station:SCCF:51:1,2009-12-03T14:00:00Z,26.5545,-82.1715,1.467,6.57,1111122 
SCCF RECON,ioos:station:SCCF:51:1,2009-12-03T15:00:00Z,26.5545,-82.1715,1.553,6.33,1111122 
SCCF RECON,ioos:station:SCCF:51:1,2009-12-03T16:00:00Z,26.5545,-82.1715,1.685,6.59,1111122 
SCCF RECON,ioos:station:SCCF:51:1,2009-12-03T17:00:00Z,26.5545,-82.1715,1.841,6.65,1111122 
SCCF RECON,ioos:station:SCCF:51:1,2009-12-03T18:00:00Z,26.5545,-82.1715,1.941,6.73,1111122 
SCCF RECON,ioos:station:SCCF:51:1,2009-12-03T19:00:00Z,26.5545,-82.1715,1.996,6.73,1111122 
SCCF RECON,ioos:station:SCCF:51:1,2009-12-03T20:00:00Z,26.5545,-82.1715,2.01,6.89,1111122 
SCCF RECON,ioos:station:SCCF:51:1,2009-12-03T21:00:00Z,26.5545,-82.1715,1.992,6.84,1111122 
SCCF RECON,ioos:station:SCCF:51:1,2009-12-03T22:00:00Z,26.5545,-82.1715,1.949,6.7,1111122 
SCCF RECON,ioos:station:SCCF:51:1,2009-12-03T23:00:00Z,26.5545,-82.1715,1.915,6.57,1111122 
SCCF RECON,ioos:station:SCCF:51:1,2009-12-04T00:00:00Z,26.5545,-82.1715,1.907,6.76,1111122 
SCCF RECON,ioos:station:SCCF:51:1,2009-12-04T01:00:00Z,26.5545,-82.1715,1.954,6.86,1111122 
SCCF RECON,ioos:station:SCCF:51:1,2009-12-04T02:00:00Z,26.5545,-82.1715,2.015,6.79,1111122 
SCCF RECON,ioos:station:SCCF:51:1,2009-12-04T03:00:00Z,26.5545,-82.1715,2.111,6.72,1111122 
SCCF RECON,ioos:station:SCCF:51:1,2009-12-04T04:00:00Z,26.5545,-82.1715,2.215,6.59,1111122 
SCCF RECON,ioos:station:SCCF:51:1,2009-12-04T05:00:00Z,26.5545,-82.1715,2.273,6.51,1111122 
SCCF RECON,ioos:station:SCCF:51:1,2009-12-04T06:00:00Z,26.5545,-82.1715,2.277,6.42,1111122 
SCCF RECON,ioos:station:SCCF:51:1,2009-12-04T07:00:00Z,26.5545,-82.1715,2.211,6.57,1111122 
SCCF RECON,ioos:station:SCCF:51:1,2009-12-04T08:00:00Z,26.5545,-82.1715,2.105,6.53,1111122 
SCCF RECON,ioos:station:SCCF:51:1,2009-12-04T09:00:00Z,26.5545,-82.1715,1.971,6.49,1111122 
SCCF RECON,ioos:station:SCCF:51:1,2009-12-04T10:00:00Z,26.5545,-82.1715,1.827,6.45,1111122 
SCCF RECON,ioos:station:SCCF:51:1,2009-12-04T11:00:00Z,26.5545,-82.1715,1.684,6.26,1111122 
SCCF RECON,ioos:station:SCCF:51:1,2009-12-04T12:00:00Z,26.5545,-82.1715,1.547,6.25,1111122 
SCCF RECON,ioos:station:SCCF:51:1,2009-12-04T13:00:00Z,26.5545,-82.1715,1.43,6.26,1111122 
SCCF RECON,ioos:station:SCCF:51:1,2009-12-04T14:00:00Z,26.5545,-82.1715,1.329,6.21,1111122 
SCCF RECON,ioos:station:SCCF:51:1,2009-12-04T15:00:00Z,26.5545,-82.1715,1.333,6.14,1111122 
SCCF RECON,ioos:station:SCCF:51:1,2009-12-04T16:00:00Z,26.5545,-82.1715,1.455,6.35,1111122 
SCCF RECON,ioos:station:SCCF:51:1,2009-12-04T17:00:00Z,26.5545,-82.1715,1.566,6.58,1111122 
SCCF RECON,ioos:station:SCCF:51:1,2009-12-04T18:00:00Z,26.5545,-82.1715,1.703,6.57,1111122 
SCCF RECON,ioos:station:SCCF:51:1,2009-12-04T19:00:00Z,26.5545,-82.1715,1.805,6.54,1111122 
SCCF RECON,ioos:station:SCCF:51:1,2009-12-04T20:00:00Z,26.5545,-82.1715,1.868,6.37,1111122 
SCCF RECON,ioos:station:SCCF:51:1,2009-12-04T21:00:00Z,26.5545,-82.1715,1.882,6.56,1111122 
SCCF RECON,ioos:station:SCCF:51:1,2009-12-04T22:00:00Z,26.5545,-82.1715,1.856,6.55,1111122 
SCCF RECON,ioos:station:SCCF:51:1,2009-12-04T23:00:00Z,26.5545,-82.1715,1.811,6.55,1111122 
SCCF RECON,ioos:station:SCCF:51:1,2009-12-05T00:00:00Z,26.5545,-82.1715,1.768,6.63,1111122 
SCCF RECON,ioos:station:SCCF:51:1,2009-12-05T01:00:00Z,26.5545,-82.1715,1.755,6.65,1111122 
SCCF RECON,ioos:station:SCCF:51:1,2009-12-05T02:00:00Z,26.5545,-82.1715,1.812,6.69,1111122 
SCCF RECON,ioos:station:SCCF:51:1,2009-12-05T03:00:00Z,26.5545,-82.1715,1.891,6.65,1111122 
SCCF RECON,ioos:station:SCCF:51:1,2009-12-05T04:00:00Z,26.5545,-82.1715,1.997,6.71,1111122 
SCCF RECON,ioos:station:SCCF:51:1,2009-12-05T05:00:00Z,26.5545,-82.1715,2.107,6.6,1111122 
SCCF RECON,ioos:station:SCCF:51:1,2009-12-05T06:00:00Z,26.5545,-82.1715,2.172,6.61,1111122 
SCCF RECON,ioos:station:SCCF:51:1,2009-12-05T07:00:00Z,26.5545,-82.1715,2.174,6.58,1111122 
SCCF RECON,ioos:station:SCCF:51:1,2009-12-05T08:00:00Z,26.5545,-82.1715,2.107,6.65,1111122 
SCCF RECON,ioos:station:SCCF:51:1,2009-12-05T09:00:00Z,26.5545,-82.1715,2.022,6.66,1111122 
SCCF RECON,ioos:station:SCCF:51:1,2009-12-05T10:00:00Z,26.5545,-82.1715,1.92,6.61,1111122 
SCCF RECON,ioos:station:SCCF:51:1,2009-12-05T11:00:00Z,26.5545,-82.1715,1.802,6.51,1111122 
SCCF RECON,ioos:station:SCCF:51:1,2009-12-05T12:00:00Z,26.5545,-82.1715,1.67,6.41,1111122 
SCCF RECON,ioos:station:SCCF:51:1,2009-12-05T13:00:00Z,26.5545,-82.1715,1.558,6.43,1111122 
SCCF RECON,ioos:station:SCCF:51:1,2009-12-05T14:00:00Z,26.5545,-82.1715,1.478,6.25,1111122 
SCCF RECON,ioos:station:SCCF:51:1,2009-12-05T15:00:00Z,26.5545,-82.1715,1.459,6.15,1111122 
SCCF RECON,ioos:station:SCCF:51:1,2009-12-05T16:00:00Z,26.5545,-82.1715,1.524,6.43,1111122 
SCCF RECON,ioos:station:SCCF:51:1,2009-12-05T17:00:00Z,26.5545,-82.1715,1.651,6.71,1111122 
SCCF RECON,ioos:station:SCCF:51:1,2009-12-05T18:00:00Z,26.5545,-82.1715,1.767,6.75,1111122 
SCCF RECON,ioos:station:SCCF:51:1,2009-12-05T19:00:00Z,26.5545,-82.1715,1.836,6.79,1111122 
SCCF RECON,ioos:station:SCCF:51:1,2009-12-05T20:00:00Z,26.5545,-82.1715,1.825,6.85,1111122 
SCCF RECON,ioos:station:SCCF:51:1,2009-12-05T21:00:00Z,26.5545,-82.1715,1.875,6.99,1111122 
SCCF RECON,ioos:station:SCCF:51:1,2009-12-05T22:00:00Z,26.5545,-82.1715,1.845,7.03,1111122 
SCCF RECON,ioos:station:SCCF:51:1,2009-12-05T23:00:00Z,26.5545,-82.1715,1.764,6.99,1111122 
SCCF RECON,ioos:station:SCCF:51:1,2009-12-06T00:00:00Z,26.5545,-82.1715,1.703,6.98,1111122 
SCCF RECON,ioos:station:SCCF:51:1,2009-12-06T01:00:00Z,26.5545,-82.1715,1.647,6.99,1111122 
SCCF RECON,ioos:station:SCCF:51:1,2009-12-06T02:00:00Z,26.5545,-82.1715,1.634,7.05,1111122 
SCCF RECON,ioos:station:SCCF:51:1,2009-12-06T03:00:00Z,26.5545,-82.1715,1.669,6.98,1111122 
SCCF RECON,ioos:station:SCCF:51:1,2009-12-06T04:00:00Z,26.5545,-82.1715,1.745,6.85,1111122 
SCCF RECON,ioos:station:SCCF:51:1,2009-12-06T05:00:00Z,26.5545,-82.1715,1.825,6.72,1111122 
SCCF RECON,ioos:station:SCCF:51:1,2009-12-06T06:00:00Z,26.5545,-82.1715,1.941,6.85,1111122 
SCCF RECON,ioos:station:SCCF:51:1,2009-12-06T07:00:00Z,26.5545,-82.1715,2.01,6.9,1111122 
SCCF RECON,ioos:station:SCCF:51:1,2009-12-06T08:00:00Z,26.5545,-82.1715,2.003,6.78,1111122 
SCCF RECON,ioos:station:SCCF:51:1,2009-12-06T09:00:00Z,26.5545,-82.1715,1.957,6.82,1111122 
SCCF RECON,ioos:station:SCCF:51:1,2009-12-06T10:00:00Z,26.5545,-82.1715,1.883,6.87,1111122 
SCCF RECON,ioos:station:SCCF:51:1,2009-12-06T11:00:00Z,26.5545,-82.1715,1.791,6.73,1111122 
SCCF RECON,ioos:station:SCCF:51:1,2009-12-06T12:00:00Z,26.5545,-82.1715,1.688,6.77,1111122 
SCCF RECON,ioos:station:SCCF:51:1,2009-12-06T13:00:00Z,26.5545,-82.1715,1.59,6.81,1111122 
SCCF RECON,ioos:station:SCCF:51:1,2009-12-06T14:00:00Z,26.5545,-82.1715,1.498,6.93,1111122 
SCCF RECON,ioos:station:SCCF:51:1,2009-12-06T15:00:00Z,26.5545,-82.1715,1.417,7.04,1111122 
SCCF RECON,ioos:station:SCCF:51:1,2009-12-06T16:00:00Z,26.5545,-82.1715,1.396,7.15,1111122 
SCCF RECON,ioos:station:SCCF:51:1,2009-12-06T17:00:00Z,26.5545,-82.1715,1.464,7.24,1111122 
SCCF RECON,ioos:station:SCCF:51:1,2009-12-06T18:00:00Z,26.5545,-82.1715,1.562,7.46,1111122 
SCCF RECON,ioos:station:SCCF:51:1,2009-12-06T19:00:00Z,26.5545,-82.1715,1.682,7.24,1111122 
SCCF RECON,ioos:station:SCCF:51:1,2009-12-06T20:00:00Z,26.5545,-82.1715,1.808,7.08,1111122 
SCCF RECON,ioos:station:SCCF:51:1,2009-12-06T21:00:00Z,26.5545,-82.1715,1.912,7.51,1111122 
SCCF RECON,ioos:station:SCCF:51:1,2009-12-06T22:00:00Z,26.5545,-82.1715,1.976,7.33,1111122 
SCCF RECON,ioos:station:SCCF:51:1,2009-12-06T23:00:00Z,26.5545,-82.1715,1.983,7.28,1111122 
SCCF RECON,ioos:station:SCCF:51:1,2009-12-07T00:00:00Z,26.5545,-82.1715,1.92,7.27,1111122 
SCCF RECON,ioos:station:SCCF:51:1,2009-12-07T01:00:00Z,26.5545,-82.1715,1.849,7.31,1111122 
SCCF RECON,ioos:station:SCCF:51:1,2009-12-07T02:00:00Z,26.5545,-82.1715,1.806,7.41,1111122 
SCCF RECON,ioos:station:SCCF:51:1,2009-12-07T03:00:00Z,26.5545,-82.1715,1.79,7.42,1111122 
SCCF RECON,ioos:station:SCCF:51:1,2009-12-07T04:00:00Z,26.5545,-82.1715,1.82,7.27,1111122 
SCCF RECON,ioos:station:SCCF:51:1,2009-12-07T05:00:00Z,26.5545,-82.1715,1.898,7.1,1111122 
SCCF RECON,ioos:station:SCCF:51:1,2009-12-07T06:00:00Z,26.5545,-82.1715,1.97,7.04,1111122 
SCCF RECON,ioos:station:SCCF:51:1,2009-12-07T07:00:00Z,26.5545,-82.1715,2.044,6.9,1111122 
SCCF RECON,ioos:station:SCCF:51:1,2009-12-07T08:00:00Z,26.5545,-82.1715,2.064,6.76,1111122 
SCCF RECON,ioos:station:SCCF:51:1,2009-12-07T09:00:00Z,26.5545,-82.1715,2.058,6.86,1111122 
SCCF RECON,ioos:station:SCCF:51:1,2009-12-07T10:00:00Z,26.5545,-82.1715,2.027,6.9,1111122 
SCCF RECON,ioos:station:SCCF:51:1,2009-12-07T11:00:00Z,26.5545,-82.1715,1.97,6.95,1111122 
SCCF RECON,ioos:station:SCCF:51:1,2009-12-07T12:00:00Z,26.5545,-82.1715,1.9,7.05,1111122 
SCCF RECON,ioos:station:SCCF:51:1,2009-12-07T13:00:00Z,26.5545,-82.1715,1.808,6.97,1111122 
SCCF RECON,ioos:station:SCCF:51:1,2009-12-07T14:00:00Z,26.5545,-82.1715,1.699,6.71,1111122 
SCCF RECON,ioos:station:SCCF:51:1,2009-12-07T15:00:00Z,26.5545,-82.1715,1.595,6.84,1111122 
SCCF RECON,ioos:station:SCCF:51:1,2009-12-07T16:00:00Z,26.5545,-82.1715,1.513,7.03,1111122 
SCCF RECON,ioos:station:SCCF:51:1,2009-12-07T17:00:00Z,26.5545,-82.1715,1.52,7.2,1111122 
SCCF RECON,ioos:station:SCCF:51:1,2009-12-07T19:00:00Z,26.5545,-82.1715,1.694,6.7,1111122 
SCCF RECON,ioos:station:SCCF:51:1,2009-12-07T20:00:00Z,26.5545,-82.1715,1.82,5.59,1111122 
SCCF RECON,ioos:station:SCCF:51:1,2009-12-07T21:00:00Z,26.5545,-82.1715,1.908,5.71,1111122 
SCCF RECON,ioos:station:SCCF:51:1,2009-12-07T22:00:00Z,26.5545,-82.1715,1.95,5.87,1111122 
SCCF RECON,ioos:station:SCCF:51:1,2009-12-07T23:00:00Z,26.5545,-82.1715,1.962,5.86,1111122 
SCCF RECON,ioos:station:SCCF:51:1,2009-12-08T00:00:00Z,26.5545,-82.1715,1.948,6.19,1111122 
SCCF RECON,ioos:station:SCCF:51:1,2009-12-08T01:00:00Z,26.5545,-82.1715,1.9,6.13,1111122 
SCCF RECON,ioos:station:SCCF:51:1,2009-12-08T02:00:00Z,26.5545,-82.1715,1.83,6.08,1111122 
SCCF RECON,ioos:station:SCCF:51:1,2009-12-08T03:00:00Z,26.5545,-82.1715,1.762,6.03,1111122 
SCCF RECON,ioos:station:SCCF:51:1,2009-12-08T04:00:00Z,26.5545,-82.1715,1.74,5.52,1111122 
SCCF RECON,ioos:station:SCCF:51:1,2009-12-08T05:00:00Z,26.5545,-82.1715,1.767,5.95,1111122 
SCCF RECON,ioos:station:SCCF:51:1,2009-12-08T06:00:00Z,26.5545,-82.1715,1.8,5.63,1111122 
SCCF RECON,ioos:station:SCCF:51:1,2009-12-08T07:00:00Z,26.5545,-82.1715,1.86,5.71,1111122 
SCCF RECON,ioos:station:SCCF:51:1,2009-12-08T08:00:00Z,26.5545,-82.1715,1.93,5.82,1111122 
SCCF RECON,ioos:station:SCCF:51:1,2009-12-08T09:00:00Z,26.5545,-82.1715,1.999,5.88,1111122 
SCCF RECON,ioos:station:SCCF:51:1,2009-12-08T10:00:00Z,26.5545,-82.1715,2.04,5.94,1111122 
SCCF RECON,ioos:station:SCCF:51:1,2009-12-08T11:00:00Z,26.5545,-82.1715,2.041,5.76,1111122 
SCCF RECON,ioos:station:SCCF:51:1,2009-12-08T12:00:00Z,26.5545,-82.1715,1.999,5.69,1111122 
SCCF RECON,ioos:station:SCCF:51:1,2009-12-08T13:00:00Z,26.5545,-82.1715,1.93,5.9,1111122 
SCCF RECON,ioos:station:SCCF:51:1,2009-12-08T14:00:00Z,26.5545,-82.1715,1.85,6.01,1111122 
SCCF RECON,ioos:station:SCCF:51:1,2009-12-08T15:00:00Z,26.5545,-82.1715,1.772,5.73,1111122 
SCCF RECON,ioos:station:SCCF:51:1,2009-12-08T16:00:00Z,26.5545,-82.1715,1.697,5.77,1111122 
SCCF RECON,ioos:station:SCCF:51:1,2009-12-08T17:00:00Z,26.5545,-82.1715,1.646,7.71,1111122 
SCCF RECON,ioos:station:SCCF:51:1,2009-12-08T18:00:00Z,26.5545,-82.1715,1.675,7.93,1111122 
SCCF RECON,ioos:station:SCCF:51:1,2009-12-08T19:00:00Z,26.5545,-82.1715,1.753,8.23,1111122 
SCCF RECON,ioos:station:SCCF:51:1,2009-12-08T20:00:00Z,26.5545,-82.1715,1.857,8.49,1111122 
SCCF RECON,ioos:station:SCCF:51:1,2009-12-08T21:00:00Z,26.5545,-82.1715,1.968,8.04,1111122 
SCCF RECON,ioos:station:SCCF:51:1,2009-12-08T22:00:00Z,26.5545,-82.1715,2.034,8.05,1111122 
SCCF RECON,ioos:station:SCCF:51:1,2009-12-08T23:00:00Z,26.5545,-82.1715,2.06,7.93,1111122 
SCCF RECON,ioos:station:SCCF:51:1,2009-12-09T00:00:00Z,26.5545,-82.1715,2.061,7.94,1111122 
SCCF RECON,ioos:station:SCCF:51:1,2009-12-09T01:00:00Z,26.5545,-82.1715,2.04,7.93,1111122 
SCCF RECON,ioos:station:SCCF:51:1,2009-12-09T02:00:00Z,26.5545,-82.1715,1.98,8.38,1111122 
SCCF RECON,ioos:station:SCCF:51:1,2009-12-09T03:00:00Z,26.5545,-82.1715,1.92,8.54,1111122 
SCCF RECON,ioos:station:SCCF:51:1,2009-12-09T04:00:00Z,26.5545,-82.1715,1.86,8.34,1111122 
SCCF RECON,ioos:station:SCCF:51:1,2009-12-09T05:00:00Z,26.5545,-82.1715,1.808,8.31,1111122 
SCCF RECON,ioos:station:SCCF:51:1,2009-12-09T06:00:00Z,26.5545,-82.1715,1.78,8.19,1111122 
SCCF RECON,ioos:station:SCCF:51:1,2009-12-09T07:00:00Z,26.5545,-82.1715,1.801,8.17,1111122 
SCCF RECON,ioos:station:SCCF:51:1,2009-12-09T08:00:00Z,26.5545,-82.1715,1.859,8.13,1111122 
SCCF RECON,ioos:station:SCCF:51:1,2009-12-09T09:00:00Z,26.5545,-82.1715,1.939,8.01,1111122 
SCCF RECON,ioos:station:SCCF:51:1,2009-12-09T10:00:00Z,26.5545,-82.1715,2.004,7.17,1111122 
SCCF RECON,ioos:station:SCCF:51:1,2009-12-09T11:00:00Z,26.5545,-82.1715,2.04,6.93,1111122 
SCCF RECON,ioos:station:SCCF:51:1,2009-12-09T12:00:00Z,26.5545,-82.1715,2.03,7.25,1111122 
SCCF RECON,ioos:station:SCCF:51:1,2009-12-09T13:00:00Z,26.5545,-82.1715,2.001,7.37,1111122 
SCCF RECON,ioos:station:SCCF:51:1,2009-12-09T14:00:00Z,26.5545,-82.1715,1.96,7.88,1111122 
SCCF RECON,ioos:station:SCCF:51:1,2009-12-09T15:00:00Z,26.5545,-82.1715,1.884,7.89,1111122 
SCCF RECON,ioos:station:SCCF:51:1,2009-12-09T16:00:00Z,26.5545,-82.1715,1.806,7.9,1111122 
SCCF RECON,ioos:station:SCCF:51:1,2009-12-09T17:00:00Z,26.5545,-82.1715,1.751,7.97,1111122 
SCCF RECON,ioos:station:SCCF:51:1,2009-12-09T18:00:00Z,26.5545,-82.1715,1.712,8.28,1111122 
SCCF RECON,ioos:station:SCCF:51:1,2009-12-09T19:00:00Z,26.5545,-82.1715,1.746,8.5,1111122 
SCCF RECON,ioos:station:SCCF:51:1,2009-12-09T20:00:00Z,26.5545,-82.1715,1.824,8.85,1111122 
SCCF RECON,ioos:station:SCCF:51:1,2009-12-09T21:00:00Z,26.5545,-82.1715,1.919,9.08,1111122 
SCCF RECON,ioos:station:SCCF:51:1,2009-12-09T22:00:00Z,26.5545,-82.1715,2.01,8.3,1111122 
SCCF RECON,ioos:station:SCCF:51:1,2009-12-09T23:00:00Z,26.5545,-82.1715,2.069,8.28,1111122 
SCCF RECON,ioos:station:SCCF:51:1,2009-12-10T00:00:00Z,26.5545,-82.1715,2.103,7.99,1111122 
SCCF RECON,ioos:station:SCCF:51:1,2009-12-10T01:00:00Z,26.5545,-82.1715,2.106,7.7,1111122 
SCCF RECON,ioos:station:SCCF:51:1,2009-12-10T02:00:00Z,26.5545,-82.1715,2.071,8.18,1111122 
SCCF RECON,ioos:station:SCCF:51:1,2009-12-10T03:00:00Z,26.5545,-82.1715,2.002,8.23,1111122 
SCCF RECON,ioos:station:SCCF:51:1,2009-12-10T04:00:00Z,26.5545,-82.1715,1.911,8.18,1111122 
SCCF RECON,ioos:station:SCCF:51:1,2009-12-10T05:00:00Z,26.5545,-82.1715,1.821,8.2,1111122 
SCCF RECON,ioos:station:SCCF:51:1,2009-12-10T06:00:00Z,26.5545,-82.1715,1.732,8.07,1111122 
SCCF RECON,ioos:station:SCCF:51:1,2009-12-10T07:00:00Z,26.5545,-82.1715,1.67,7.83,1111122 
SCCF RECON,ioos:station:SCCF:51:1,2009-12-10T08:00:00Z,26.5545,-82.1715,1.665,7.7,1111122 
SCCF RECON,ioos:station:SCCF:51:1,2009-12-10T09:00:00Z,26.5545,-82.1715,1.729,7.9,1111122 
SCCF RECON,ioos:station:SCCF:51:1,2009-12-10T10:00:00Z,26.5545,-82.1715,1.82,7.61,1111122 
SCCF RECON,ioos:station:SCCF:51:1,2009-12-10T11:00:00Z,26.5545,-82.1715,1.91,7.19,1111122 
SCCF RECON,ioos:station:SCCF:51:1,2009-12-10T12:00:00Z,26.5545,-82.1715,1.962,6.98,1111122 
SCCF RECON,ioos:station:SCCF:51:1,2009-12-10T13:00:00Z,26.5545,-82.1715,2.001,6.88,1111122 
SCCF RECON,ioos:station:SCCF:51:1,2009-12-10T14:00:00Z,26.5545,-82.1715,2.003,6.83,1111122 
SCCF RECON,ioos:station:SCCF:51:1,2009-12-10T15:00:00Z,26.5545,-82.1715,1.982,7.3,1111122 
SCCF RECON,ioos:station:SCCF:51:1,2009-12-10T16:00:00Z,26.5545,-82.1715,1.953,7.57,1111122 
SCCF RECON,ioos:station:SCCF:51:1,2009-12-10T17:00:00Z,26.5545,-82.1715,1.901,7.76,1111122 
SCCF RECON,ioos:station:SCCF:51:1,2009-12-10T18:00:00Z,26.5545,-82.1715,1.84,8.12,1111122 
SCCF RECON,ioos:station:SCCF:51:1,2009-12-10T19:00:00Z,26.5545,-82.1715,1.801,8.43,1111122 
SCCF RECON,ioos:station:SCCF:51:1,2009-12-10T20:00:00Z,26.5545,-82.1715,1.817,8.45,1111122 
SCCF RECON,ioos:station:SCCF:51:1,2009-12-10T21:00:00Z,26.5545,-82.1715,1.897,8.46,1111122 
SCCF RECON,ioos:station:SCCF:51:1,2009-12-10T22:00:00Z,26.5545,-82.1715,2.015,8.89,1111122 
SCCF RECON,ioos:station:SCCF:51:1,2009-12-10T23:00:00Z,26.5545,-82.1715,2.105,8.42,1111122 
SCCF RECON,ioos:station:SCCF:51:1,2009-12-11T00:00:00Z,26.5545,-82.1715,2.129,8.14,1111122 
SCCF RECON,ioos:station:SCCF:51:1,2009-12-11T01:00:00Z,26.5545,-82.1715,2.106,8.19,1111122 
SCCF RECON,ioos:station:SCCF:51:1,2009-12-11T02:00:00Z,26.5545,-82.1715,2.058,8.18,1111122 
SCCF RECON,ioos:station:SCCF:51:1,2009-12-11T03:00:00Z,26.5545,-82.1715,1.998,7.96,1111122 
SCCF RECON,ioos:station:SCCF:51:1,2009-12-11T04:00:00Z,26.5545,-82.1715,1.916,7.87,1111122 
SCCF RECON,ioos:station:SCCF:51:1,2009-12-11T05:00:00Z,26.5545,-82.1715,1.818,7.76,1111122 
SCCF RECON,ioos:station:SCCF:51:1,2009-12-11T06:00:00Z,26.5545,-82.1715,1.714,7.47,1111122 
SCCF RECON,ioos:station:SCCF:51:1,2009-12-11T07:00:00Z,26.5545,-82.1715,1.615,7.17,1111122 
SCCF RECON,ioos:station:SCCF:51:1,2009-12-11T08:00:00Z,26.5545,-82.1715,1.531,7.06,1111122 
SCCF RECON,ioos:station:SCCF:51:1,2009-12-11T09:00:00Z,26.5545,-82.1715,1.475,7.06,1111122 
SCCF RECON,ioos:station:SCCF:51:1,2009-12-11T10:00:00Z,26.5545,-82.1715,1.484,7.04,1111122 
SCCF RECON,ioos:station:SCCF:51:1,2009-12-11T11:00:00Z,26.5545,-82.1715,1.567,7.12,1111122 
SCCF RECON,ioos:station:SCCF:51:1,2009-12-11T12:00:00Z,26.5545,-82.1715,1.675,7.16,1111122 
SCCF RECON,ioos:station:SCCF:51:1,2009-12-11T13:00:00Z,26.5545,-82.1715,1.765,6.85,1111122 
SCCF RECON,ioos:station:SCCF:51:1,2009-12-11T14:00:00Z,26.5545,-82.1715,1.834,6.88,1111122 
SCCF RECON,ioos:station:SCCF:51:1,2009-12-11T15:00:00Z,26.5545,-82.1715,1.87,7.04,1111122 
SCCF RECON,ioos:station:SCCF:51:1,2009-12-11T16:00:00Z,26.5545,-82.1715,1.858,7.09,1111122 
SCCF RECON,ioos:station:SCCF:51:1,2009-12-11T17:00:00Z,26.5545,-82.1715,1.812,7.47,1111122 
SCCF RECON,ioos:station:SCCF:51:1,2009-12-11T18:00:00Z,26.5545,-82.1715,1.776,7.75,1111122 
SCCF RECON,ioos:station:SCCF:51:1,2009-12-11T19:00:00Z,26.5545,-82.1715,1.749,7.98,1111122 
SCCF RECON,ioos:station:SCCF:51:1,2009-12-11T20:00:00Z,26.5545,-82.1715,1.781,8.13,1111122 